Regional Weather Roundup
Issued by NWS Grand Forks, ND

Home | Current Version | Previous Version | Graphics & Text | Print | Product List | Glossary On
Versions: 1 2 3 4 5 6 7 8 9 10 11 12 13 14 15 16 17 18 19 20 21 22 23 24 25 26 27 28 29 30 31 32 33 34 35 36 37 38 39 40 41 42 43 44 45 46 47 48 49 50
000
ASUS43 KFGF 281510
RWRFGF
PRAIRIE TO PINES  WEATHER ROUNDUP
NATIONAL WEATHER SERVICE EASTERN NORTH DAKOTA/GRAND FORKS ND
900 AM CST SUN DEC 28 2014

 **SATELLITE DATA USED TO AUGMENT SKY COVER AT AUTOMATED STATIONS**
 *****  WEATHER ACROSS EASTERN NORTH DAKOTA  *****

CITY           SKY/WX    TMP DP  RH WIND       PRES   REMARKS
GRAND FORKS    PTCLDY    -9 -14  78 N8        30.30R WCI -25
GRAND FRKS AFB PTCLDY    -9 -13  82 N7        30.30R WCI -24
GRAND FRKS NWS   N/A     -9 N/A N/A VRB7        N/A  WCI -24
DEVILS LAKE    CLOUDY    -2  -9  71 NE6       30.21R WCI -14
FARGO          CLEAR     -1  -8  72 N16       30.26R WCI -21
WAHPETON ARPT  CLOUDY     5   1  85 N16       30.22R WCI -14
$$

 ***** WEATHER ACROSS CENTRAL AND WESTERN NORTH DAKOTA  *****

CITY           SKY/WX    TMP DP  RH WIND       PRES   REMARKS
BISMARCK       CLOUDY     9   6  88 E7        30.14R WCI  -2
MINOT          CLOUDY    -6 -11  79 NW7       30.19R WCI -20
JAMESTOWN      CLOUDY     4  -1  80 NE10      30.19R WCI -11
MINOT AFB      CLOUDY    -8 -11  84 N6        30.20R WCI -21
GARRISON         N/A      5   1  83 NE8       30.13R WCI  -8
WILLISTON      CLOUDY    12   6  77 NE9       30.10R WCI   0
DICKINSON      CLOUDY    18  14  84 E13       29.98R WCI   5
HETTINGER      CLOUDY    12   8  84 E7        29.98R WCI   1
$$

 *****  OTHER AIRPORT OBSERVATIONS IN OUR AREA  *****

CITY           SKY/WX    TMP DP  RH WIND       PRES   REMARKS
WALHALLA         N/A    -11 -15  84 NW7       30.31R WCI -26
GRAFTON AIRPOR NOT AVBL
VALLEY CITY AR CLOUDY     0   0 100 NE10      30.22R WCI -17
CANDO          CLOUDY    -2  -8  78 NE7       30.23R WCI -16
CAVALIER APRT  FAIR     -11 -17  77 NW6       30.31R WCI -25
GWINNER        CLOUDY     7   3  85 N18       30.20R WCI -12
SHEYENNE NWR     N/A      1  -8  64 N14       29.95S WCI -17
ROLLA          FAIR     -17 -20  83 N3        30.20R
 ***** THE ABOVE OBSERVATIONS ARE NON NWS ARE NOT QUALITY
       CONTROLLED AND MAY MIS-REPORT RAIN FOR SNOW...
$$

  *****  WEATHER ACROSS NORTHERN MINNESOTA  *****

CITY           SKY/WX    TMP DP  RH WIND       PRES   REMARKS
FLAG ISLAND    CLEAR    -13 -18  77 NW9       30.22R WCI -31
WARROAD        CLEAR    -11 -17  77 W5        30.23R WCI -23
ROSEAU         PTCLDY    -9 -15  77 NW5       30.25R WCI -21
HALLOCK        CLEAR    -11 -18  70 N5        30.29S WCI -23
THF RVR FALLS  CLEAR     -9 -13  84 NW8       30.24R WCI -26
BAUDETTE       CLEAR     -8 -13  78 NW8       30.21R WCI -24
WASKISH        MOCLDY    -2  -8  78 CALM      30.20R
CROOKSTON      CLEAR     -9 -15  77 N9        30.30R WCI -27
STEPHEN NDAWN    N/A    -13 -18  77 N5          N/A  WCI -25
GREENBUSH NDAW   N/A    -11 -17  77 NW5         N/A  WCI -23
$$
  *****  WEATHER ACROSS CENTRAL AND WEST MINNESOTA  *****

CITY           SKY/WX    TMP DP  RH WIND       PRES   REMARKS
FOSSTON        CLEAR     -8 -11  84 N5        30.22R WCI -19
BEMIDJI        CLOUDY    -4  -8  84 NW3       30.18R
PARK RAPIDS    CLEAR      3  -3  76 N12       30.15R WCI -13
ELBOW LAKE     CLOUDY    16  12  85 N12       30.15R WCI   2
WADENA         MOCLDY    10   7  85 N8        30.14R WCI  -1
DETROIT LAKES  CLEAR      1   0  92 N6        30.18R WCI -10
MOORHEAD       PTCLDY    -2  -6  84 N12       30.26R WCI -20
FERGUS FALLS   CLOUDY     9   1  72 N9        30.21R WCI  -5
MORRIS MN      MOCLDY    19  18  93 NW12      30.14R WCI   7
STAPLES        MOCLDY    10   9  92 NW9       30.14R WCI  -2
$$
  *****  WEATHER ELSEWHERE ACROSS MINNESOTA  *****

CITY           SKY/WX    TMP DP  RH WIND       PRES   REMARKS
DULUTH         CLEAR      9   0  67 NW9G18    30.08R WCI  -4
INTRNTL FALLS  CLEAR     -5 -10  79 NW5       30.18R WCI -16
ELY            CLOUDY     0  -6  78 NW8       30.10R WCI -15
CLOQUET        MOCLDY    10   3  72 NW15G22   30.10R WCI  -6
WHEATON        CLOUDY    10   7  85 N13       30.21R WCI  -5
BRAINERD       MOCLDY    13   8  81 N7        30.13R WCI   3
HIBBING        CLEAR     -1  -8  72 N10       30.14R WCI -17
ALEXANDRIA     CLOUDY    18  13  80 N12       30.11R WCI   5
SAINT CLOUD    CLOUDY    19  13  77 CALM      30.11R
MINNEAPOLIS    MOCLDY    10   7  87 CALM      30.14R
$$

  *****  WEATHER ACROSS SOUTH DAKOTA  *****

CITY           SKY/WX    TMP DP  RH WIND       PRES   REMARKS
SIOUX FALLS    PTCLDY    -1  -1 100 CALM      30.11R
BROOKINGS      NOT AVBL
WATERTOWN      CLOUDY     9   6  88 NW5       30.09R WCI   1
HURON          PTCLDY    -1  -5  82 CALM      30.12R
SISSETON         N/A     11   8  88 N15       30.18R WCI  -5
ABERDEEN       CLOUDY    16  12  84 NE12      30.15R WCI   3
MITCHELL       PTCLDY     2  -1  88 N3        30.13R
PIERRE         FOG        2   0  91 E5        30.06R VSB 1/4 WCI  -8
MOBRIDGE       CLOUDY    14  10  84 SE9       30.05R WCI   2
RAPID CITY     MOCLDY    10   3  73 NW3       29.94R
$$

  *****  SOME WEATHER IN NEARBY STATES *****

CITY           SKY/WX    TMP DP  RH WIND       PRES   REMARKS
GLASGOW MT     CLOUDY    18  14  84 E15       30.00R WCI   4
GREAT FALLS MT LGT SNOW  22  21  96 N13       29.89R FOG     WCI  10
CHEYENNE WY    CLOUDY    24   4  42 VRB7      29.87R WCI  16
SCOTTSBLUFF NE CLOUDY     5   1  83 E6        29.95S WCI  -6
OMAHA NE       CLEAR     19  15  84 S3        30.17R
DES MOINES IA  MOSUNNY   19  15  84 S5        30.16R WCI  12
DAVENPORT IA   SUNNY     19  14  81 W5        30.21R WCI  12
CHICAGO IL     PTSUNNY   23  17  78 W6        30.17R WCI  16
EAU CLAIRE WI  MOCLDY    10   6  84 W5        30.13R WCI   2
LA CROSSE WI   CLOUDY    17  11  77 SW7       30.16R WCI   8
$$

  *****  SOME NATIONAL WEATHER *****

CITY           SKY/WX    TMP DP  RH WIND       PRES   REMARKS
LA GUARDIA NY  LGT RAIN  45  41  86 SW8       29.92R
RALEIGH NC     CLOUDY    57  50  77 SW13      30.08S
ATLANTA GA     CLOUDY    57  55  93 S6        30.10F FOG
NEW ORLEANS LA FOG       68  66  93 S5        30.10R VSB 1/2
OKLAHOMA CITY  MOSUNNY   21  18  88 CALM      30.25R
ALBUQUERQUE NM PTCLDY    17  10  74 SE3       30.21S
SALT LAKE CITY CLOUDY    27  17  66 SE8       30.08F WCI  19
LOS ANGELES CA CLOUDY    47  22  37 CALM      30.26R
BOISE ID       CLOUDY    28  26  92 CALM      30.08R
SEATTLE WA     MOCLDY    39  36  89 CALM      30.18R
$$

*** WEATHER ACROSS MANITOBA...SASKATCHEWAN AND ONTARIO ***
                ***ONTARIO***

CITY           SKY/WX    TMP DP  RH WIND       PRES   REMARKS
GERALDTON      FLURRIES  -2  -8  78 W6        29.97R WCI -14
THUNDER BAY    NOT AVBL
SIOUX LOOKOUT  CLEAR    -13 -18  77 NW10      30.11R WCI -32
TORONTO        CLOUDY    34  25  69 W14G20    30.02R WCI  24
BIG TROUT LK   PTCLDY   -20 -26  76 W13G18    29.98S WCI -43
PICKLE LAKE    PTCLDY   -18 -26  69 W10       30.01R WCI -39
DRYDEN         CLEAR    -17 -22  76 W10       30.13R WCI -37
KENORA         CLEAR    -18 -24  76 NW7       30.18R WCI -35
$$
                *** MANITOBA***

CITY           SKY/WX    TMP DP  RH WIND       PRES   REMARKS
BRANDON        NOT AVBL
DAUPHIN        CLEAR    -29 -35  75 W6        30.31R WCI -46
ISLAND LAKE    PTCLDY   -26 -31  75 W9        30.15R WCI -47
PILOT MOUND      N/A    -15 -20  76 N3          N/A
THE PAS        PTCLDY   -24 -29  76 NW10      30.34R WCI -46
THOMPSON       PTCLDY   -26 -33  68 NW7       30.25R WCI -44
WINNIPEG       NOT AVBL
CHURCHILL      CRYSTALS -13 -18  77 N21G28    30.16R WCI -39
GILLAM         PTCLDY   -24 -29  76 NW12      30.15S WCI -47
$$
                ***SASKATCHEWAN***

CITY           SKY/WX    TMP DP  RH WIND       PRES   REMARKS
ESTEVAN        MOCLDY    -6  -9  84 E10       30.18R WCI -23
KINDERSLEY     NOT AVBL
LLOYDMINSTER   NOT AVBL
PRINCE ALBERT  NOT AVBL
REGINA         NOT AVBL
YORKTON        CLEAR    -20 -26  76 NW5       30.25R WCI -33
N. BATTLEFORD  CLEAR    -20 -24  83 N3        30.35R HAZE
LA RONGE       NOT AVBL
SASKATOON      PTCLDY   -24 -29  76 N3        30.34R
SWIFT CURRENT  FLURRIES   3   1  92 E14       30.09R WCI -15
$$
NOTE: THESE ARE AUTOMATED STATIONS WITH LIMITED QUALITY CONTROL
      "FAIR" INDICATES FEW OR NO CLOUDS BELOW 12,000 FEET WITH NO
      SIGNIFICANT WEATHER AND/OR OBSTRUCTIONS TO VISIBILITY.
      SKY/WX - SKY CONDITION AND SIGNIFICANT WEATHER.
      TMP - AIR TEMPERATURE.    DP   - DEWPOINT TEMPERATURE.
      RH  - RELATIVE HUMIDITY.  PRES - PRESSURE.
      HX  - HEAT INDEX.         WCI  - WIND CHILL INDEX.
$



USA.gov is the U.S. government's official web portal to all federal, state and local government web resources and services.